SCP
0 0 0 0 0 0 0 0 0 0 0 0 0 0 0 0 0 0 0 0 0 0 0 0 0 0 0 0 0 0 0 0 0 0 0 0 0 0
0 0 0 0 0 0 0 0 0 0 0 0 0 0 0 0 0 0 0 0 0 0 0 0 0 0 0 0 0 0 0 0 0 0 0 0 0 0
0 0 0 0 0 0 0 0 0 0 0 0 0 0 0 0 0 0 0 0 0 0 0 0 0 0 0 0 0 0 0 0 0 0 0 0 0 0
0 0 0 0 0 0 0 0 0 0 0 0 0 0 0 0 0 0 0 0 0 0 0 0 0 0 0 0 0 0 0 0 0 0 0 0 0 0
0 0 0 0 0 0 0 0 0 0 0 0 0 0 0 0 0 0 0 0 0 0 0 0 0 0 0 0 0 0 0 0 0 0 0 0 0 0
0 0 0 0 0 0 0 0 0 0 0 0 0 0 0 0 0 0 0 0 0 0 0 0 0 0 0 0 0 0 0 0 0 0 0 0 0 0
0 0 0 0 0 0 0 0 0 0 0 0 0 0 0 0 0 0 0 0 0 0 0 0 0 0 0 0 0 0 0 0 0 0 0 0 0 0
0 0 0 0 0 0 0 0 0 0 0 0 0 0 0 0 0 0 0 0 0 0 0 0 0 0 0 0 0 0 0 0 0 0 0 0 0 0
0 0 0 0 0 0 0 0 0 0 0 0 0 0 0 0 0 0 0 0 0 0 0 0 0 0 0 0 0 0 0 0 0 0 0 0 0 0
0 0 0 0 0 0 0 0 0 0 0 0 0 0 0 0 0 0 0 0 0 0 0 0 0 0 0 0 0 0 0 0 0 0 0 0 0 0
0 0 0 0 0 0 0 0 0 0 0 0 0 0 0 0 0 0 0 0 0 0 0 0 0 0 0 0 0 0 0 0 0 0 0 0 0 0
0 0 0 0 0 0 0 0 0 0 0 0 0 0 0 0 0 0 0 0 0 0 0 0 0 0 0 0 0 0 0 0 0 0 0 0 0 0
0 0 0 0 0 0 0 0 0 0 0 0 0 0 0 0 0 0 0 0 0 0 0 0 0 0 0 0 0 0 0 0 0 0 0 0 0 0
0 0 0 0 0 0 0 0 0 0 0 0 0 0 0 0 0 0 0 0 0 0 0 0 0 0 0 0 0 0 0 0 0 0 0 0 0 0
0 0 0 0 0 0 0 0 0 0 0 0 0 0 0 0 0 0 0 0 0 0 0 0 0 0 0 0 0 0 0 0 0 0 0 0 0 0
0 0 0 0 0 0 0 0 0 0 0 0 0 0 0 0 0 0 0 0 0 0 0 0 0 0 0 0 0 0 0 0 0 0 0 0 0 0
0 0 0 0 0 0 0 0 0 0 0 0 0 0 0 0 0 0 0 0 0 0 0 0 0 0 0 0 0 0 0 0 0 0 0 0 0 0
0 0 0 0 0 0 0 0 0 0 0 0 0 0 0 0 0 0 0 0 0 0 0 0 0 0 0 0 0 0 0 0 0 0 0 0 0 0
0 0 0 0 0 0 0 0 0 0 0 0 0 0 0 0 0 0 0 0 0 0 0 0 0 0 0 0 0 0 0 0 0 0 0 0 0 0
0 0 0 0 0 0 0 0 0 0 0 0 0 0 0 0 0 0 0 0 0 0 0 0 0 0 0 0 0 0 0 0 0 0 0 0 0 0
0 0 0 0 0 0 0 0 0 0 0 0 0 0 0 0 0 0 0 0 0 0 0 0 0 0 0 0 0 0 0 0 0 0 0 0 0 0
0 0 0 0 0 0 0 0 0 0 0 0 0 0 0 0 0 0 0 0 0 0 0 0 0 0 0 0 0 0 0 0 0 0 0 0 0 0
0 0 0 0 0 0 0 0 0 0 0 0 0 0 0 0 0 0 0 0 0 0 0 0 0 0 0 0 0 0 0 0 0 0 0 0 0 0
Wind_Speed
2 2 1 1 1 1 1 1 2 1 0 1 1 3 3 4 6 5 6 10 11 9 8 7 7 6 6 6 6 5 5 5 4 4 4 3 1 1
1 2 2 2 1 1 1 0 0 1 1 1 2 2 3 4 7 6 7 11 11 10 9 9 9 8 8 7 7 7 6 6 5 5 4 4 5 5
3 3 3 3 3 2 2 2 1 2 2 1 2 2 4 5 5 4 4 5 5 8 9 10 10 10 10 10 9 8 8 7 7 7 6 7 7 7
4 4 4 4 4 3 2 2 2 2 3 3 2 2 4 4 4 4 4 4 4 8 10 11 11 11 11 10 10 10 10 9 9 9 9 9 8 7
5 5 5 5 4 4 3 3 2 3 3 4 3 3 3 3 3 4 5 3 4 7 9 10 11 11 11 11 11 10 10 10 10 10 9 9 9 9
6 6 6 6 6 4 4 4 4 4 4 4 4 3 2 2 2 3 3 2 3 4 5 7 9 11 11 11 11 11 10 9 9 9 9 9 9 9
6 7 8 9 10 7 5 4 4 4 4 4 4 3 3 2 2 1 3 2 2 2 3 3 4 4 5 7 9 10 9 9 8 8 8 7 7 7
5 5 6 8 9 10 10 9 8 5 4 3 3 3 3 2 2 2 2 1 1 1 2 2 3 3 3 3 6 8 8 8 7 7 7 6 5 5
6 5 6 7 7 5 6 8 9 9 7 4 4 3 3 2 2 2 1 1 2 1 1 2 2 3 3 5 6 6 6 6 6 6 5 4 3 3
6 6 6 6 7 6 6 7 7 7 6 5 4 4 4 3 2 1 1 2 2 1 2 1 2 2 3 3 5 5 4 4 4 4 3 3 2 1
7 7 6 6 8 8 5 5 6 5 7 8 7 6 5 4 3 2 2 2 2 1 1 1 1 2 2 2 3 4 3 3 2 1 1 1 1 1
5 6 9 8 8 8 5 5 5 4 3 4 4 4 4 4 5 3 2 1 1 1 2 1 0 1 1 2 2 3 2 3 3 2 2 1 2 0
5 5 5 8 8 8 6 4 3 2 1 2 3 3 3 3 3 3 3 3 2 2 2 2 1 1 1 1 1 2 2 2 2 2 3 3 2 1
5 4 4 5 6 6 4 4 5 4 1 2 3 3 2 2 2 2 2 2 2 2 1 2 1 1 1 1 0 1 1 1 1 1 2 2 2 2
4 5 4 2 1 1 2 4 4 2 2 2 2 2 2 1 1 1 2 1 1 2 3 2 2 2 2 1 1 0 0 1 1 1 1 1 1 1
3 2 2 1 1 1 1 1 1 2 2 2 2 1 1 1 1 1 1 0 1 1 1 1 1 2 1 1 1 1 1 0 0 0 0 1 1 1
1 1 1 1 1 1 1 1 1 1 2 2 2 1 1 1 1 1 1 1 1 1 0 0 0 0 0 0 1 1 1 1 1 1 1 1 1 1
1 0 1 1 1 1 1 1 1 2 2 2 1 1 1 1 1 1 1 1 1 1 1 1 1 1 1 1 1 1 1 1 1 1 1 1 2 1
0 0 1 1 0 1 1 1 1 1 1 1 1 2 2 1 1 1 1 1 1 1 1 1 1 1 2 2 2 2 1 1 1 2 2 2 2 1
1 1 0 0 0 1 1 2 2 2 1 1 1 2 2 1 1 1 1 1 1 1 1 1 1 1 1 1 2 3 3 2 1 2 2 2 1 1
2 1 0 0 0 1 1 1 1 1 0 1 1 1 1 1 1 2 1 1 1 1 1 1 1 2 2 1 2 2 2 4 3 2 2 2 2 2
1 1 1 0 1 1 1 1 1 1 0 0 1 1 1 1 2 2 2 1 1 1 2 1 2 2 1 2 3 3 2 1 3 5 5 5 2 2
1 1 1 1 1 1 1 1 1 1 1 1 1 1 1 1 1 1 1 2 2 2 2 2 2 2 2 2 3 3 3 2 2 2 3 6 8 8
Wind_Direction
341 338 323 327 320 306 277 194 196 205 224 54 51 47 67 83 93 87 84 82 79 77 75 73 73 73 71 68 65 61 59 57 58 59 59 56 57 112
21 15 8 354 344 2 14 359 103 151 146 76 70 66 67 84 90 86 83 84 76 77 76 73 71 72 70 67 65 62 58 56 55 56 55 56 60 65
31 31 23 22 18 17 34 43 59 108 124 92 77 83 77 81 90 89 96 91 83 81 80 77 74 70 67 66 64 62 59 58 57 57 61 65 67 67
36 32 27 32 33 25 30 42 67 102 124 120 94 81 76 89 98 101 97 92 90 90 85 81 79 75 71 68 64 61 59 59 59 59 62 63 65 66
44 43 33 34 35 32 34 31 48 73 89 107 98 81 81 84 95 85 80 79 95 98 91 82 81 79 74 70 67 65 62 60 60 60 60 61 62 63
57 51 43 42 35 29 44 39 52 68 84 97 101 95 82 64 78 85 82 63 72 88 92 95 85 78 74 70 68 67 65 62 61 62 61 59 61 62
71 70 65 63 58 52 55 47 54 66 81 92 101 97 88 78 69 84 96 96 78 81 95 101 96 80 76 73 71 71 70 70 68 65 62 60 60 63
64 74 83 65 63 65 65 60 61 69 73 84 93 99 96 87 73 93 104 106 81 59 94 98 107 100 95 87 86 83 77 73 70 70 67 66 65 65
53 49 57 56 50 49 68 71 61 57 66 85 86 88 95 86 94 90 80 81 89 110 93 91 97 97 99 102 113 105 94 85 78 75 71 69 77 78
58 54 62 53 37 33 58 66 62 51 55 70 76 75 79 70 60 86 114 108 99 74 81 100 117 117 112 121 141 130 120 108 95 85 72 59 67 81
72 58 53 53 29 35 57 70 76 72 71 79 85 87 81 70 53 54 46 73 88 77 36 62 129 124 124 136 159 165 156 152 144 131 93 34 7 180
94 78 57 48 38 39 53 60 59 47 58 81 85 89 94 81 65 56 41 40 68 74 21 0 97 121 120 134 151 178 192 202 203 209 219 243 281 299
94 83 62 48 46 40 44 56 46 13 57 85 90 82 73 70 61 52 37 52 58 49 20 1 7 4 84 138 164 185 187 191 196 211 222 232 246 217
84 92 87 63 48 40 41 22 9 7 55 74 80 79 75 69 63 63 64 61 81 100 55 18 10 3 14 54 84 183 204 201 185 188 188 201 230 246
82 96 107 98 32 34 47 12 5 8 26 59 75 77 75 70 78 78 72 63 46 60 76 41 18 10 9 17 44 87 208 259 195 158 168 196 207 206
113 125 164 241 275 314 5 10 30 20 11 42 67 74 77 62 53 82 100 170 113 71 60 57 33 19 358 359 43 31 15 308 263 299 327 285 247 194
114 172 183 173 180 148 109 76 39 27 26 34 46 44 48 60 34 31 28 0 29 84 113 291 227 192 203 319 42 13 347 336 297 280 279 270 262 243
107 174 114 79 69 81 84 96 81 45 14 13 26 29 3 37 51 32 28 4 4 26 28 18 22 12 347 17 33 357 336 310 302 288 276 275 273 245
114 235 100 77 34 66 72 65 77 66 16 7 16 16 0 10 43 48 20 1 353 357 19 23 28 22 357 342 311 285 287 286 284 282 272 270 269 251
229 255 127 141 71 44 55 64 69 65 34 12 15 7 358 358 359 355 7 358 345 345 350 10 34 27 329 296 286 278 254 252 266 277 288 295 302 310
206 220 193 83 92 82 77 89 95 96 61 346 2 0 345 343 343 339 343 346 323 330 339 329 271 251 248 262 278 274 259 244 242 240 268 283 281 266
202 173 131 74 81 88 72 61 81 89 57 340 19 348 333 332 333 329 328 325 321 328 326 306 273 265 268 280 287 284 278 275 266 256 252 242 240 255
189 165 156 170 129 116 105 68 30 42 34 359 360 343 326 325 314 310 320 325 325 323 325 322 320 312 306 303 305 308 311 290 277 280 277 256 244 247